Regional Weather Roundup
Issued by NWS Sioux Falls, SD

Home | Current Version | Previous Version | Text Only | Print | Product List | Glossary On
Versions: 1 2 3 4 5 6 7 8 9 10 11 12 13 14 15 16 17 18 19 20 21 22 23 24 25 26 27 28 29 30 31 32 33 34 35 36 37 38 39 40 41 42 43 44 45 46 47 48 49 50
000
ASUS43 KFSD 211010
RWRFSD

WEATHER ROUNDUP FOR SE SOUTH DAKOTA/SW MINNESOTA/NW IOWA
NATIONAL WEATHER SERVICE SIOUX FALLS SD
500 AM CDT SUN SEP 21 2014

NOTE: "FAIR" INDICATES FEW OR NO CLOUDS BELOW 12,000 FEET WITH NO
SIGNIFICANT WEATHER AND OR OBSTRUCTIONS TO VISIBILITY.


SDZ038>040-050-052>070-211100-
SOUTHEAST SOUTH DAKOTA

CITY           SKY/WX    TMP DP  RH WIND       PRES   REMARKS
CHAMBERLAIN    CLEAR     49  40  69 NW8       30.20R
HURON          CLEAR     50  40  68 NW9       30.14R
MADISON        FAIR      48  45  87 NW10      30.11R
MITCHELL       CLEAR     50  42  74 W8        30.15R
SIOUX FALLS    CLEAR     50  43  77 W9        30.10R
WINNER         FAIR      49  38  65 W8        30.23R
YANKTON        CLEAR     52  43  71 NW9       30.14R
$$

MNZ071-072-080-081-089-090-097-098-211100-
SOUTHWEST MINNESOTA

CITY           SKY/WX    TMP DP  RH WIND       PRES   REMARKS
FAIRMONT       CLEAR     55  43  62 NW13      30.00R
JACKSON        CLEAR     54  43  66 NW12G17   30.04R
LUVERNE        CLEAR     52  43  71 NW9       30.09R
MARSHALL       CLEAR     52  43  71 NW10      30.04R
MONTEVIDEO     CLEAR     50  45  81 N7        30.05R
PIPESTONE      CLEAR     52  45  76 NW7       30.08R
REDWOOD FALLS  CLEAR     53  48  83 NW12      30.02R
TRACY          CLEAR     53  46  77 NW8       30.05R
WINDOM         CLEAR     52  45  76 W7        30.04R
WORTHINGTON    CLEAR     52  45  76 NW10      30.07R
$$

IAZ001>003-012>014-020>022-031-032-NEZ013-014-SDZ071-211100-
NORTHWEST IOWA

CITY           SKY/WX    TMP DP  RH WIND       PRES   REMARKS
CHEROKEE       CLEAR     52  48  86 NW6       30.07R
DENISON        CLEAR     52  50  93 W5        30.06R
ESTHERVILLE    CLEAR     53  45  74 NW10      30.02R
LE MARS          N/A     50  46  87 NW6       30.09S
ORANGE CITY    CLEAR     50  45  81 NW8       30.08R
SHELDON        CLEAR     52  46  82 NW8       30.06R
SIOUX CITY     CLEAR     51  47  86 CALM      30.10R
SPENCER        CLEAR     50  45  83 NW8       30.05R
$$

ABBREVIATIONS USED IN REMARKS
   TC - TEMPERATURE IN CELSIUS
  WCI - WIND CHILL INDEX
   HX - HEAT INDEX
  VSB - VISIBILITY



USA.gov is the U.S. government's official web portal to all federal, state and local government web resources and services.